This is the latest recevied weather packets stored in our database for station/object AA7F. If no packets are shown the sender has not sent any weather packets the latest 10 day(s).
| Time | Temp. | Humidity | Pressure | Rain* | Wind** | Luminosity | Snow |
|---|---|---|---|---|---|---|---|
| 1777767676 | 27.22° C | 27% | 1011.2 hPa | 0 mm | - | 260 W/m² | - |
| 1777767372 | 27.22° C | 28% | 1011.2 hPa | 0 mm | - | 297 W/m² | - |
| 1777767069 | 27.22° C | 26% | 1011.1 hPa | 0 mm | - | 291 W/m² | - |
| 1777766767 | 26.67° C | 26% | 1011.1 hPa | 0 mm | - | 291 W/m² | - |
| 1777766464 | 27.22° C | 26% | 1011.2 hPa | 0 mm | - | 300 W/m² | - |
| 1777766160 | 27.22° C | 27% | 1011 hPa | 0 mm | - | 321 W/m² | - |
| 1777765554 | 27.22° C | 31% | 1011.3 hPa | 0 mm | - | 349 W/m² | - |
| 1777764952 | 27.22° C | 28% | 1011.2 hPa | 0 mm | - | 397 W/m² | - |
| 1777764649 | 27.78° C | 26% | 1011.4 hPa | 0 mm | - | 440 W/m² | - |
| 1777764345 | 27.78° C | 34% | 1011.4 hPa | 0 mm | - | 456 W/m² | - |
| 1777764043 | 27.22° C | 28% | 1011.4 hPa | 0 mm | - | 435 W/m² | - |
| 1777762529 | 27.22° C | 29% | 1011.9 hPa | 0 mm | - | 471 W/m² | - |
| 1777761317 | 27.22° C | 27% | 1011.9 hPa | 0 mm | - | 495 W/m² | - |
| 1777761015 | 27.22° C | 31% | 1012.1 hPa | 0 mm | - | 447 W/m² | - |
| 1777760409 | 27.22° C | 29% | 1012.3 hPa | 0 mm | - | 539 W/m² | - |
| 1777760104 | 27.22° C | 27% | 1012.4 hPa | 0 mm | - | 548 W/m² | - |
| 1777759804 | 27.78° C | 33% | 1012.2 hPa | 0 mm | - | 573 W/m² | - |
| 1777759497 | 27.78° C | 26% | 1012.5 hPa | 0 mm | - | 568 W/m² | - |
| 1777758891 | 27.78° C | 28% | 1012.6 hPa | 0 mm | - | 526 W/m² | - |
| 1777757679 | 27.22° C | 37% | 1012.9 hPa | 0 mm | - | 592 W/m² | - |
| 1777757378 | 27.22° C | 31% | 1012.9 hPa | 0 mm | - | 632 W/m² | - |
| 1777757076 | 27.22° C | 29% | 1012.9 hPa | 0 mm | - | 632 W/m² | - |
| 1777756773 | 27.22° C | 35% | 1013 hPa | 0 mm | - | 635 W/m² | - |
| 1777756469 | 26.67° C | 33% | 1013.2 hPa | 0 mm | - | 640 W/m² | - |
| 1777756166 | 26.67° C | 33% | 1013.2 hPa | 0 mm | - | 660 W/m² | - |
* Rain latest hour (hover to see other rain measurements)
** Current wind speed in m/s (hover to see current wind gust speed)